ACA794 KLAX-CYYZ

Flight info

Callsign ACA794
Flight time N/A
Altitude 37000
Route DOTSS2 CLEEE DCT PKE DCT FLG J10 RSK J64 PUB DCT GLD DCT DIYAP/N0479F390 DCT JOT DCT SVM DCT QWERI NUBER6
Aircraft B789/H-SDE1E2E3FGHIJ2J3J4J5M1RWXY/LB1D1

Departure

Time N/A
Airport Los Angeles International Airport (KLAX)

Arrival

Time 2026-05-04 15:43
Airport Toronto Pearson International Airport (CYYZ)
Time Latitude Longitude Altitude Speed Heading
2026-05-04 15:35 43.63073 -79.49410 6286 ft 257 kts 43°
2026-05-04 15:36 43.65502 -79.45876 5761 ft 255 kts 44°
2026-05-04 15:36 43.66718 -79.44099 5498 ft 252 kts 44°
2026-05-04 15:36 43.67921 -79.42345 5242 ft 250 kts 45°
2026-05-04 15:37 43.69114 -79.40600 4987 ft 249 kts 45°
2026-05-04 15:37 43.70303 -79.38868 4734 ft 249 kts 44°
2026-05-04 15:37 43.71627 -79.37466 4441 ft 227 kts 19°
2026-05-04 15:37 43.73071 -79.37122 4218 ft 199 kts 352°
2026-05-04 15:38 43.74347 -79.37597 4056 ft 185 kts 328°
2026-05-04 15:38 43.75353 -79.38660 3905 ft 183 kts 310°
2026-05-04 15:38 43.76268 -79.39865 3729 ft 180 kts 310°
2026-05-04 15:38 43.77181 -79.41050 3540 ft 181 kts 311°
2026-05-04 15:39 43.77878 -79.42432 3305 ft 172 kts 282°
2026-05-04 15:39 43.77918 -79.44033 3153 ft 162 kts 255°
2026-05-04 15:39 43.76707 -79.46335 2888 ft 149 kts 225°
2026-05-04 15:40 43.75993 -79.47359 2737 ft 147 kts 226°
2026-05-04 15:40 43.75285 -79.48394 2579 ft 150 kts 226°
2026-05-04 15:40 43.74565 -79.49451 2431 ft 152 kts 227°
2026-05-04 15:40 43.73847 -79.50503 2278 ft 151 kts 226°
2026-05-04 15:41 43.73127 -79.51562 2147 ft 150 kts 226°
2026-05-04 15:41 43.72401 -79.52613 2000 ft 154 kts 226°
2026-05-04 15:41 43.71675 -79.53687 1745 ft 153 kts 227°
2026-05-04 15:41 43.70961 -79.54751 1587 ft 150 kts 227°
2026-05-04 15:42 43.70244 -79.55798 1464 ft 153 kts 226°
2026-05-04 15:42 43.69495 -79.56863 1249 ft 152 kts 226°
2026-05-04 15:42 43.68760 -79.57924 999 ft 153 kts 227°
2026-05-04 15:42 43.68030 -79.58990 739 ft 155 kts 228°
2026-05-04 15:43 43.67312 -79.60048 570 ft 142 kts 227°
2026-05-04 15:43 43.66757 -79.60846 562 ft 81 kts 226°
2026-05-04 15:43 43.66485 -79.61254 549 ft 43 kts 234°
2026-05-04 15:43 43.66397 -79.61524 546 ft 18 kts 255°
2026-05-04 15:44 43.66382 -79.61663 547 ft 12 kts 285°
2026-05-04 15:44 43.66424 -79.61747 548 ft 12 kts 313°
2026-05-04 15:44 43.66491 -79.61843 548 ft 16 kts 314°
2026-05-04 15:44 43.66549 -79.61920 545 ft 0 kts 316°
2026-05-04 15:45 43.66563 -79.61939 545 ft 5 kts 316°
2026-05-04 15:45 43.66592 -79.61942 545 ft 5 kts 18°
2026-05-04 15:45 43.66616 -79.61918 545 ft 5 kts 40°
2026-05-04 15:46 43.66655 -79.61872 545 ft 9 kts 43°
2026-05-04 15:46 43.66705 -79.61801 544 ft 11 kts 46°
2026-05-04 15:46 43.66757 -79.61727 547 ft 11 kts 47°
2026-05-04 15:46 43.66812 -79.61646 555 ft 13 kts 46°
2026-05-04 15:47 43.66874 -79.61556 551 ft 13 kts 46°
2026-05-04 15:47 43.66934 -79.61470 555 ft 11 kts 47°
2026-05-04 15:47 43.66985 -79.61395 557 ft 11 kts 46°
2026-05-04 15:47 43.67041 -79.61313 560 ft 13 kts 46°
2026-05-04 15:48 43.67108 -79.61216 555 ft 15 kts 47°
2026-05-04 15:48 43.67188 -79.61099 558 ft 19 kts 46°
2026-05-04 15:48 43.67362 -79.60846 551 ft 16 kts 46°
2026-05-04 15:49 43.67444 -79.60820 562 ft 11 kts 324°
2026-05-04 15:49 43.67501 -79.60896 564 ft 11 kts 323°
2026-05-04 15:49 43.67563 -79.60888 558 ft 10 kts 40°
2026-05-04 15:49 43.67617 -79.60809 560 ft 12 kts 47°
2026-05-04 15:50 43.67683 -79.60781 562 ft 11 kts 341°
2026-05-04 15:50 43.67750 -79.60857 571 ft 12 kts 316°
2026-05-04 15:50 43.67796 -79.60920 568 ft 4 kts 304°
2026-05-04 15:50 43.67795 -79.60938 573 ft 5 kts 259°
2026-05-04 15:51 43.67767 -79.61003 568 ft 5 kts 226°
2026-05-04 15:51 43.67759 -79.61016 568 ft 2 kts 227°
2026-05-04 15:51 43.67757 -79.61018 568 ft 0 kts 227°